Regional Weather Roundup
Issued by NWS New Orleans/Baton Rouge, LA

Home | Current Version | Previous Version | Text Only | Print | Product List | Glossary On
Versions: 1 2 3 4 5 6 7 8 9 10 11 12 13 14 15 16 17 18 19 20 21 22 23 24 25 26 27 28 29 30 31 32 33 34 35 36 37 38 39 40 41 42 43 44 45 46 47 48 49 50
000
ASUS44 KLIX 032011
RWRLIX
NEW ORLEANS REGIONAL WEATHER ROUNDUP
NATIONAL WEATHER SERVICE NEW ORLEANS LA
300 PM CDT FRI JUL 03 2015

NOTE: "FAIR" INDICATES FEW OR NO CLOUDS BELOW 12,000 FEET WITH NO
      SIGNIFICANT WEATHER AND/OR OBSTRUCTIONS TO VISIBILITY.
      SKY/WX - SKY CONDITION AND SIGNIFICANT WEATHER.
      TMP - AIR TEMPERATURE.     DP    - DEWPOINT TEMPERATURE.
      RH  - RELATIVE HUMIDITY.   PRES  - PRESSURE.
      HI  - HEAT INDEX.          WCI   - WIND CHILL INDEX.

*  THESE STATIONS ARE NOT NWS OR FAA STATIONS AND ARE NOT UNDER
   NWS QUALITY CONTROL.

LAZ038-040-048-061>063-065>067-069-032100-
SOUTHEAST LOUISIANA

CITY           SKY/WX    TMP DP  RH WIND       PRES   REMARKS
N.O. AUDUBON   NOT AVBL
N.O. INTL ARPT PTSUNNY   92  74  55 S12       30.02F HX 101
N.O. LAKEFRONT MOSUNNY   95  76  53 N7        30.02F HX 108
N.O. DOWNTOWN*   N/A     93  72  49 S8G16     30.03S HX 100
RESERVE*       NOT AVBL
SLIDELL        PTSUNNY   91  74  57 VRB6      30.01F HX 100
BATON ROUGE    MOSUNNY   92  69  47 SW8       30.01F HX  97
BOOTHVILLE     MOSUNNY   88  75  65 SW9       30.05F HX  97
BELLE CHASSE   MOSUNNY   90  72  55 S13       30.02F HX  97
BOGALUSA*        N/A     92  72  51 SW9       30.03F HX 100
GALLIANO*      PTCLDY    91  70  48 SW8       30.04F HX  96
NEW ROADS*       N/A    N/A N/A N/A S7        30.01F
GONZALES*        N/A     91  73  56 S9        30.01F HX  99
HAMMOND*       PTSUNNY   93  66  40 SW10      30.03S HX  96
HOUMA*         MOSUNNY   91  75  59 S12       30.03F HX 102
PORT FOURCHON* PTCLDY    88  73  62 SW8       30.05F HX  96

$$

MSZ070-080>082-032100-
SOUTHERN MISSISSIPPI

CITY           SKY/WX    TMP DP  RH WIND       PRES   REMARKS
MCCOMB         CLOUDY    89  73  59 SW9       30.02F HX  97
GULFPORT       MOSUNNY   89  75  63 VRB6      30.02F HX  99
BILOXI         MOSUNNY   89  79  72 S15       30.03F HX 103
PASCAGOULA     MOSUNNY   89  78  70 SW10      30.04S HX 103
STENNIS ARPT*  MOSUNNY   90  70  51 MISG      30.02F HX  95

$$

COASTAL OBSERVATIONS
LAKE AND NEARSHORE STATIONS

STATION/POSITION TIME  TEMP    WIND        PRES    WAVE
                       AIR SEA DIR/SP/G            HT/PER
                 (UTC) (F)     (DEG/KT/KT) (MB)    (FT/S)
PASCAGOULA       1900   87     200/  8/ 10 1017.2
WAVELAND YACHT   1900   87 85  220/  8/ 12 1017.4
GRAND ISLE       1900   87 86  210/  7/ 10 1018.0
SOUTHWEST PASS   1900   89 83  210/  4/  5 1018.4
NEW CANAL        1900   87 85   CALM  /  1 1016.2
SHELL BEACH      1900   88 84  190/ 11/ 15 1016.8

OFFSHORE STATIONS

STATION/POSITION TIME  TEMP    WIND        PRES    WAVE
                       AIR SEA DIR/SP/G            HT/PER
                 (UTC) (F)     (DEG/KT/KT) (MB)    (FT/S)
64 S DAUPHIN ISL 1950   85 88  230/  6/  8 1018.3    2/ 7

$$




USA.gov is the U.S. government's official web portal to all federal, state and local government web resources and services.